EW1970 Weather Reports


Display with metric or nautical units.
time (UTC)temp
F
wind
direction
speed
MPH
gust
MPH
rain 1hr
in
rain 24hr
in
rain mn
in
humidity
%
barometer
mb
20260904123012 79 283 0.0 2.0 0.00 0.00 0.00 88 1015.2
20260904121518 79 187 0.0 3.0 0.00 0.00 0.00 88 1014.9
20260904120029 79 107 0.0 3.0 0.00 0.00 0.00 88 1014.7
20260904114506 79 140 0.0 4.0 0.00 0.00 0.00 87 1014.5
20260904113010 79 119 0.0 4.0 0.00 0.00 0.00 87 1014.4
20260904111517 79 141 0.0 3.0 0.00 0.00 0.00 86 1014.2
20260904110024 79 309 0.0 2.0 0.00 0.00 0.00 86 1014.2
20260904104527 79 111 0.0 3.0 0.00 0.00 0.00 86 1014.2
20260904103010 79 119 1.0 4.0 0.00 0.00 0.00 85 1014.1
20260904101514 79 138 1.0 3.0 0.00 0.00 0.00 85 1014.0
20260904100027 80 310 0.0 4.0 0.00 0.00 0.00 85 1013.9
20260904094526 80 148 0.0 2.0 0.00 0.00 0.00 84 1013.7
20260904093052 80 319 0.0 4.0 0.00 0.00 0.00 83 1013.6
20260904091515 80 223 1.0 5.0 0.00 0.00 0.00 83 1013.8
20260904090019 80 242 0.0 2.0 0.00 0.00 0.00 83 1013.8
20260904084524 80 135 0.0 3.0 0.00 0.00 0.00 83 1013.8
20260904083029 80 290 0.0 5.0 0.00 0.00 0.00 84 1013.8
20260904081532 80 97 0.0 3.0 0.00 0.00 0.00 83 1013.8
20260904080018 80 191 1.0 8.0 0.00 0.00 0.00 83 1013.8
20260904074522 80 252 2.0 5.0 0.00 0.00 0.00 83 1013.8
20260904073048 80 248 2.0 10.0 0.00 0.00 0.00 83 1013.9
20260904071535 80 277 0.0 7.0 0.00 0.00 0.00 83 1014.1
20260904070033 80 171 0.0 3.0 0.00 0.00 0.00 83 1014.3
20260904064520 80 78 0.0 3.0 0.00 0.00 0.00 82 1014.3
20260904063026 80 300 0.0 4.0 0.00 0.00 0.00 82 1014.3
20260904061508 80 208 1.0 4.0 0.00 0.00 0.00 81 1014.2
20260904060012 80 43 1.0 6.0 0.00 0.00 0.00 80 1014.4
20260904054517 80 29 1.0 5.0 0.00 0.00 0.00 80 1014.3
20260904053003 80 224 1.0 7.0 0.00 0.00 0.00 80 1014.1
20260904051506 80 204 1.0 7.0 0.00 0.00 0.00 80 1014.1
20260904050008 80 143 2.0 8.0 0.00 0.00 0.00 80 1014.0
20260904044517 80 147 1.0 7.0 0.00 0.00 0.00 79 1014.1
20260904043017 80 144 2.0 7.0 0.00 0.00 0.00 79 1013.9
20260904041503 81 171 0.0 6.0 0.00 0.00 0.00 79 1014.0
20260904040008 80 115 0.0 5.0 0.00 0.00 0.00 78 1013.9
20260904034516 81 107 1.0 6.0 0.00 0.00 0.00 78 1013.8
20260904033030 81 157 1.0 9.0 0.00 0.00 0.00 77 1013.7
20260904031525 81 128 1.0 9.0 0.00 0.00 0.00 76 1013.7
20260904030003 81 151 1.0 7.0 0.00 0.00 0.00 74 1013.4
20260904024512 82 324 0.0 4.0 0.00 0.00 0.00 73 1013.4
20260904023016 82 119 2.0 7.0 0.00 0.00 0.00 72 1013.3
20260904021527 82 190 0.0 7.0 0.00 0.00 0.00 71 1013.1
20260904020027 83 134 2.0 11.0 0.00 0.00 0.00 70 1012.9
20260904014508 83 150 0.0 10.0 0.00 0.00 0.00 69 1012.9
20260904013018 83 82 1.0 5.0 0.00 0.00 0.00 69 1012.5
20260904011519 84 123 1.0 9.0 0.00 0.00 0.00 68 1012.4
20260904010025 84 32 0.0 10.0 0.00 0.00 0.00 67 1012.3
20260904004507 85 104 1.0 9.0 0.00 0.00 0.00 67 1012.3
20260904003027 85 151 0.0 12.0 0.00 0.00 0.00 66 1012.2
20260904001518 86 43 0.0 5.0 0.00 0.00 0.00 65 1012.2
20260904000030 87 107 1.0 8.0 0.00 0.00 0.00 63 1012.0
20260903234530 88 164 1.0 12.0 0.00 0.00 0.00 62 1012.0
20260903233007 89 160 1.0 10.0 0.00 0.00 0.00 62 1011.8
20260903231513 90 146 2.0 8.0 0.00 0.00 0.00 61 1011.7
20260903230040 91 352 1.0 14.0 0.00 0.00 0.00 60 1011.7
20260903224531 93 275 3.0 15.0 0.00 0.00 0.00 60 1011.6
20260903223032 94 63 2.0 10.0 0.00 0.00 0.00 58 1011.3
20260903221513 94 295 2.0 9.0 0.00 0.00 0.00 57 1011.3
20260903220018 94 123 2.0 8.0 0.00 0.00 0.00 53 1011.3
20260903214537 96 84 1.0 6.0 0.00 0.00 0.00 51 1011.2
20260903213029 95 342 1.0 6.0 0.00 0.00 0.00 52 1011.4
20260903211530 96 53 1.0 8.0 0.00 0.00 0.00 50 1011.4
20260903210016 98 129 2.0 6.0 0.00 0.00 0.00 48 1011.7
20260903204524 97 27 1.0 6.0 0.00 0.00 0.00 50 1011.7
20260903203035 97 188 1.0 3.0 0.00 0.00 0.00 49 1012.0
20260903201535 101 179 1.0 6.0 0.00 0.00 0.00 44 1012.2
20260903200041 101 26 1.0 7.0 0.00 0.00 0.00 44 1012.3
20260903194520 100 105 1.0 7.0 0.00 0.00 0.00 46 1012.3
20260903193027 96 333 0.0 6.0 0.00 0.00 0.00 49 1012.5
20260903191505 94 134 0.0 2.0 0.00 0.00 0.00 54 1012.9
20260903190012 93 62 1.0 5.0 0.00 0.00 0.00 54 1013.1
20260903184516 93 113 0.0 5.0 0.00 0.00 0.00 54 1013.5
20260903183004 94 124 1.0 3.0 0.00 0.00 0.00 52 1013.7
20260903181505 95 238 1.0 9.0 0.00 0.00 0.00 52 1013.9
20260903180031 96 237 1.0 8.0 0.00 0.00 0.00 50 1014.1
20260903174510 93 215 0.0 2.0 0.00 0.00 0.00 55 1014.3
20260903173033 94 218 1.0 6.0 0.00 0.00 0.00 54 1014.4
20260903171510 96 108 2.0 7.0 0.00 0.00 0.00 52 1014.5
20260903170043 92 266 2.0 6.0 0.00 0.00 0.00 59 1014.5
20260903164510 90 124 1.0 3.0 0.00 0.00 0.00 62 1014.5
20260903163017 90 270 3.0 7.0 0.00 0.00 0.00 61 1014.5
20260903161528 90 199 2.0 10.0 0.00 0.00 0.00 61 1014.4
20260903160039 91 282 3.0 11.0 0.00 0.00 0.00 60 1014.5
20260903154512 90 259 5.0 10.0 0.00 0.00 0.00 63 1014.6
20260903153017 87 289 1.0 7.0 0.00 0.00 0.00 69 1014.5
20260903151521 85 269 0.0 6.0 0.00 0.00 0.00 71 1014.4
20260903150038 85 225 1.0 7.0 0.00 0.00 0.00 72 1014.4
20260903144508 84 183 2.0 9.0 0.00 0.00 0.00 75 1014.2
20260903143014 83 238 2.0 8.0 0.00 0.00 0.00 77 1014.3
20260903141526 82 230 2.0 7.0 0.00 0.00 0.00 79 1014.2
20260903140038 81 342 1.0 7.0 0.00 0.00 0.00 81 1014.3
20260903134533 81 284 1.0 7.0 0.00 0.00 0.00 83 1014.2
20260903133010 80 298 1.0 8.0 0.00 0.00 0.00 84 1014.3
20260903131516 80 254 1.0 7.0 0.00 0.00 0.00 84 1014.3
20260903130031 80 267 0.0 7.0 0.00 0.00 0.00 85 1014.3
20260903124527 79 234 1.0 5.0 0.00 0.00 0.00 85 1014.1